Location: Bregenz
(47.5012°N, 9.7411°E)
Time: 20:31:10
(UTC+01:00)

ISS - Visible Passes

Search period start: 07 December 2025 00:00
Search period end: 17 December 2025 00:00
Orbit: 416 x 421 km, 51.6° (Epoch: 07 December)

Date Brightness Start Highest point End Pass type
(mag) Time Alt. Az. Time Alt. Az. Time Alt. Az.
11 Dec -0.6 07:13:48 10° S 07:16:07 18° SE 07:18:27 10° E visible
12 Dec -0.3 06:27:23 10° SSE 06:28:25 11° SE 06:29:28 10° ESE visible
13 Dec -2.2 07:13:34 10° SW 07:16:44 39° SE 07:19:56 10° ENE visible
14 Dec -1.5 06:26:02 10° SSW 06:28:53 26° SE 06:31:45 10° E visible
15 Dec -0.9 05:38:50 10° S 05:41:04 17° SE 05:43:20 10° E visible
15 Dec -3.7 07:14:04 10° WSW 07:17:26 86° SSE 07:20:50 10° ENE visible
16 Dec -0.4 04:53:46 10° SE 04:53:46 10° SE 04:54:06 10° ESE visible
16 Dec -3.2 06:26:44 15° SW 06:29:26 59° SSE 06:32:46 10° ENE visible
